Weather in Mandalay

Myanmar     21°59′30″N   96°05′46″E
temp.,
°C
wind,
m/s
gust,
m/s
humid.,
%
clouds,
%
prec.,
mm/h
press.,
hPa
HPBL,
m
8 august, mon
mon800:30+27sse5108175 3.9 1003551
03:30+25sse4890100 1.4 1003477
06:30+25s369097 2.4 1004365
09:30+28s3575100 0.1 1005673
12:30+32s545889 0.4 10031393
15:30+32s565698 0.6 10001447
18:30+28s71170100 1.6 1002655
21:30+27s51074100 0.1 1005647
9 august, tue
tue900:30+26s388076 0.1 1005543
03:30+26se258097 0.0 1004395
06:30+26sse118297 0.4 1005217
09:30+30s126549 0.2 1005731
12:30+32s455678 3.4 10031577
15:30+31sse576040 2.1 10011149
18:30+28s6106842 2.2 1002662
21:30+26s5117799 0.0 1005652
10 august, wed
wed1000:30+26s51079100 0.0 1004642
03:30+25s4880100 0.0 1003626
06:30+25sse2581100 0.0 1005410
09:30+29s5665100 0.1 10051165
12:30+31s5659100 0.7 10031436
15:30+31s5655100 0.4 10011506
18:30+30s4860100 0.4 1002473
21:30+28s5107120 0.0 1005597
11 august, thu
thu1100:30+26s51081100 0.0 1005608
03:30+25s498148 0.0 1004517
06:30+25sse368178 0.0 1005459
09:30+29s466563 0.0 10061126
12:30+33ssw454997 0.1 10031824
15:30+33sw444893 0.0 10011654
18:30+31ssw3654100 0.0 1001372
21:30+30s6961100 0.0 1003599
12 august, fri
fri1200:30+28s61171100 0.0 1003625
03:30+27s5107395 0.0 1003682
06:30+27s51075100 0.0 1004619
09:30+27s5873100 0.1 1005795
12:30+27s5875100 0.1 1004682
15:30+28sse4770100 0.0 1002712
18:30+27se357351 0.0 1002315
21:30+26sse498293 0.2 1004471